EW6703 Weather Reports


Display with metric or nautical units.
time (UTC)temp
F
wind
direction
speed
MPH
gust
MPH
rain 1hr
in
rain 24hr
in
rain mn
in
humidity
%
barometer
mb
20260510104228 50 23 0.0 0.0 0.00 0.15 0.00 95 1000.1
20260510103721 50 23 0.0 0.0 0.00 0.15 0.00 95 1000.0
20260510103214 50 23 0.0 0.0 0.00 0.15 0.00 95 1000.0
20260510102709 50 23 0.0 0.0 0.00 0.15 0.00 95 999.7
20260510102204 51 23 0.0 0.0 0.00 0.15 0.00 95 999.7
20260510101657 51 23 0.0 1.0 0.00 0.15 0.00 95 999.7
20260510101417 51 23 0.0 1.0 0.00 0.15 0.00 95 999.6
20260510100907 51 23 0.0 0.0 0.00 0.15 0.00 95 999.7
20260510100140 51 23 0.0 0.0 0.00 0.15 0.00 95 999.8
20260510095632 51 23 0.0 0.0 0.00 0.15 0.00 95 999.8
20260510095344 51 23 0.0 2.0 0.00 0.15 0.00 95 999.7
20260510094621 51 23 0.0 2.0 0.00 0.15 0.00 95 999.6
20260510094115 51 23 0.0 0.0 0.00 0.15 0.00 95 999.7
20260510093609 51 23 0.0 2.0 0.00 0.15 0.00 95 999.7
20260510093102 51 23 0.0 2.0 0.00 0.15 0.00 95 999.8
20260510093047 51 24 0.0 2.0 0.00 0.15 0.00 95 999.4
20260510092100 51 23 0.0 2.0 0.00 0.15 0.00 95 999.4
20260510091600 51 22 0.0 2.0 0.00 0.15 0.00 95 999.3
20260510091100 51 23 0.0 1.0 0.00 0.15 0.00 95 999.4
20260510090559 51 23 1.0 3.0 0.00 0.15 0.00 95 999.4
20260510090057 51 23 1.0 3.0 0.00 0.15 0.00 95 999.5
20260510085821 50 22 1.0 2.0 0.00 0.15 0.00 95 999.7
20260510085320 50 22 1.0 3.0 0.00 0.15 0.00 95 999.5
20260510084822 50 22 1.0 4.0 0.00 0.15 0.00 95 999.7
20260510084058 50 23 1.0 4.0 0.00 0.15 0.00 95 999.6
20260510083814 50 300 1.0 3.0 0.00 0.15 0.00 95 999.6
20260510083055 50 300 1.0 6.0 0.00 0.15 0.00 95 999.7
20260510082824 50 19 2.0 6.0 0.00 0.15 0.00 95 999.7
20260510082055 50 269 2.0 6.0 0.00 0.15 0.00 95 999.8
20260510081554 49 346 1.0 4.0 0.00 0.15 0.00 95 999.2
20260510081314 49 347 0.0 3.0 0.00 0.15 0.00 95 999.5
20260510080555 49 351 0.0 2.0 0.00 0.15 0.00 94 999.6
20260510080053 49 351 0.0 0.0 0.00 0.15 0.00 94 999.0
20260510075547 49 351 0.0 0.0 0.00 0.15 0.00 94 999.0
20260510075313 49 351 0.0 0.0 0.00 0.15 0.00 94 999.0
20260510074536 49 351 0.0 1.0 0.00 0.15 0.00 94 998.9
20260510074030 49 351 0.0 1.0 0.00 0.15 0.00 94 998.9
20260510073522 49 351 0.0 3.0 0.00 0.15 0.00 94 998.9
20260510073017 49 351 1.0 3.0 0.00 0.15 0.00 94 999.0
20260510072511 49 351 1.0 3.0 0.00 0.15 0.00 94 998.8
20260510072006 49 351 1.0 3.0 0.00 0.15 0.00 94 998.9
20260510071724 49 351 1.0 4.0 0.00 0.15 0.00 94 998.9
20260510071211 49 350 1.0 5.0 0.00 0.15 0.00 94 999.0
20260510070447 49 350 2.0 5.0 0.00 0.15 0.00 94 998.9
20260510070205 49 344 1.0 4.0 0.00 0.15 0.00 94 999.0
20260510065435 48 340 0.0 3.0 0.00 0.15 0.00 94 998.9
20260510064929 48 114 0.0 0.0 0.00 0.15 0.00 94 998.8
20260510064423 48 114 0.0 0.0 0.00 0.15 0.00 94 998.7
20260510063917 48 114 0.0 0.0 0.00 0.15 0.00 94 998.5
20260510063410 49 114 0.0 0.0 0.00 0.15 0.00 94 998.4
20260510062906 49 114 0.0 0.0 0.00 0.15 0.00 93 998.4
20260510062358 49 114 0.0 0.0 0.00 0.15 0.00 93 998.4
20260510061853 49 114 0.0 0.0 0.00 0.15 0.00 93 998.3
20260510061347 49 114 0.0 0.0 0.00 0.15 0.00 93 998.4
20260510060840 49 114 0.0 0.0 0.00 0.15 0.00 93 998.4
20260510060602 49 114 0.0 0.0 0.00 0.15 0.00 93 998.5
20260510055830 49 114 0.0 0.0 0.00 0.15 0.00 93 998.5
20260510055323 48 114 0.0 1.0 0.00 0.15 0.00 93 998.6
20260510054817 48 114 0.0 1.0 0.00 0.15 0.00 93 998.7
20260510054315 48 114 0.0 1.0 0.00 0.15 0.00 93 998.7
20260510053814 48 114 0.0 0.0 0.00 0.15 0.00 93 998.8
20260510053801 48 114 0.0 0.0 0.00 0.15 0.00 93 998.8
20260510052815 48 114 0.0 1.0 0.00 0.15 0.00 93 998.8
20260510052312 48 114 0.0 1.0 0.00 0.15 0.00 93 998.8
20260510052027 48 114 0.0 0.0 0.00 0.15 0.00 93 998.9
20260510051532 48 114 0.0 0.0 0.00 0.15 0.00 93 998.8
20260510050811 48 114 0.0 0.0 0.00 0.15 0.00 92 998.8
20260510050309 48 114 0.0 0.0 0.00 0.15 0.00 93 998.8
20260510045807 48 114 0.0 0.0 0.00 0.15 0.00 93 998.9
20260510045306 48 114 0.0 0.0 0.00 0.15 0.00 93 999.0
20260510044803 48 114 0.0 0.0 0.00 0.15 0.00 93 999.0
20260510044523 48 114 0.0 0.0 0.00 0.15 0.00 92 999.0
20260510044023 48 114 0.0 0.0 0.00 0.15 0.00 92 999.0
20260510043259 48 114 0.0 0.0 0.00 0.15 0.00 92 999.1
20260510042758 48 114 0.0 0.0 0.00 0.15 0.00 92 999.0
20260510042256 48 114 0.0 0.0 0.00 0.15 0.00 92 999.1
20260510041755 49 114 0.0 0.0 0.00 0.15 0.00 92 999.1
20260510041252 49 114 0.0 0.0 0.00 0.15 0.00 92 999.1
20260510040750 49 114 0.0 0.0 0.00 0.15 0.00 92 999.1
20260510040252 49 114 0.0 0.0 0.00 0.15 0.00 92 999.2
20260510035745 49 114 0.0 0.0 0.00 0.15 0.15 92 999.2
20260510035239 49 114 0.0 0.0 0.00 0.15 0.15 92 999.2
20260510034733 49 114 0.0 0.0 0.00 0.15 0.15 92 999.1
20260510034228 49 114 0.0 0.0 0.00 0.15 0.15 92 999.1
20260510033721 49 114 0.0 0.0 0.00 0.15 0.15 92 999.1
20260510033215 49 114 0.0 0.0 0.00 0.15 0.15 92 999.0
20260510032709 49 114 0.0 0.0 0.00 0.15 0.15 92 998.9
20260510032427 49 114 0.0 0.0 0.00 0.15 0.15 92 999.0
20260510031920 50 114 0.0 0.0 0.00 0.15 0.15 92 998.8
20260510031151 50 114 0.0 0.0 0.00 0.15 0.15 91 998.8
20260510030646 50 114 0.0 0.0 0.00 0.15 0.15 91 998.7
20260510030139 50 114 0.0 0.0 0.00 0.15 0.15 91 998.6
20260510025632 50 114 0.0 0.0 0.00 0.15 0.15 91 998.6
20260510025128 50 114 0.0 0.0 0.00 0.15 0.15 91 998.7
20260510024621 50 114 0.0 0.0 0.00 0.15 0.15 91 998.7
20260510024115 50 114 0.0 0.0 0.00 0.15 0.15 91 998.7
20260510023609 51 114 0.0 0.0 0.00 0.15 0.15 91 998.8
20260510023103 51 114 0.0 0.0 0.00 0.15 0.15 91 998.7
20260510022557 51 114 0.0 0.0 0.00 0.15 0.15 90 998.7
20260510022052 51 114 0.0 0.0 0.00 0.15 0.15 90 998.6
20260510021544 51 114 0.0 0.0 0.00 0.15 0.15 91 998.6
20260510021301 51 114 0.0 0.0 0.00 0.15 0.15 90 998.6
20260510020534 51 114 0.0 0.0 0.00 0.15 0.15 90 998.6
20260510020027 51 114 0.0 0.0 0.00 0.15 0.15 90 998.6
20260510015523 52 114 0.0 0.0 0.00 0.15 0.15 90 998.5
20260510015015 52 114 0.0 0.0 0.00 0.15 0.15 90 998.5
20260510014733 52 114 0.0 0.0 0.00 0.15 0.15 90 998.4
20260510014002 52 114 0.0 0.0 0.00 0.15 0.15 89 998.5
20260510013456 52 114 0.0 0.0 0.00 0.15 0.15 89 998.5
20260510012951 52 114 0.0 0.0 0.00 0.15 0.15 89 998.5
20260510012706 52 114 0.0 1.0 0.00 0.15 0.15 89 998.4
20260510011941 53 114 0.0 1.0 0.00 0.15 0.15 88 998.4
20260510011433 53 114 0.0 0.0 0.00 0.15 0.15 88 998.4
20260510010927 53 114 0.0 0.0 0.00 0.15 0.15 88 998.4
20260510010421 53 114 0.0 0.0 0.00 0.15 0.15 88 998.3
20260510005915 53 114 0.0 0.0 0.00 0.15 0.15 88 998.2
20260510005409 54 114 0.0 1.0 0.00 0.15 0.15 88 998.1
20260510005133 54 114 0.0 1.0 0.00 0.15 0.15 88 998.0
20260510004356 54 114 0.0 0.0 0.00 0.15 0.15 88 998.0
20260510003851 54 114 0.0 0.0 0.00 0.15 0.15 88 998.1
20260510003346 55 114 0.0 0.0 0.00 0.15 0.15 88 998.0
20260510002840 55 114 0.0 0.0 0.00 0.15 0.15 88 998.1
20260510002333 55 114 0.0 0.0 0.00 0.15 0.15 88 998.0
20260510001827 55 114 0.0 0.0 0.00 0.15 0.15 88 998.0
20260510001545 55 114 0.0 0.0 0.00 0.15 0.15 88 998.0
20260510000821 56 114 0.0 0.0 0.00 0.15 0.15 88 997.9
20260510000319 56 114 0.0 0.0 0.00 0.15 0.15 88 998.0
20260510000304 56 114 0.0 0.0 0.00 0.15 0.15 88 997.9
20260509235314 56 114 0.0 0.0 0.00 0.15 0.15 89 997.8
20260509234812 56 114 0.0 0.0 0.00 0.15 0.15 89 997.9
20260509234309 56 114 0.0 0.0 0.00 0.15 0.15 89 998.0
20260509233809 56 114 0.0 0.0 0.00 0.15 0.15 88 998.0
20260509233309 56 114 0.0 0.0 0.00 0.15 0.15 89 998.0
20260509232810 56 114 0.0 0.0 0.00 0.15 0.15 89 998.0
20260509232307 56 114 0.0 1.0 0.00 0.15 0.15 89 997.9
20260509231807 56 114 0.0 1.0 0.00 0.15 0.15 89 997.9
20260509231303 56 114 0.0 1.0 0.00 0.15 0.15 89 997.9
20260509230803 57 114 0.0 2.0 0.00 0.15 0.15 89 997.9
20260509230305 57 114 1.0 3.0 0.00 0.15 0.15 89 997.9
20260509225806 57 115 1.0 3.0 0.00 0.15 0.15 89 997.9
20260509225524 57 115 1.0 3.0 0.00 0.15 0.15 89 997.9
20260509224801 57 113 1.0 4.0 0.00 0.15 0.15 90 998.0
20260509224301 57 113 1.0 4.0 0.00 0.15 0.15 90 998.0
20260509224018 57 98 1.0 4.0 0.00 0.15 0.15 90 997.9
20260509223300 57 108 1.0 4.0 0.00 0.15 0.15 90 998.0
20260509222801 57 109 1.0 3.0 0.00 0.15 0.15 90 998.0
20260509222306 57 109 2.0 4.0 0.00 0.15 0.15 89 997.9
20260509221800 57 107 2.0 4.0 0.00 0.15 0.15 89 997.8
20260509221302 57 113 2.0 4.0 0.00 0.15 0.15 90 997.8
20260509220800 57 90 1.0 5.0 0.00 0.15 0.15 89 997.8
20260509220300 57 80 1.0 5.0 0.00 0.15 0.15 89 997.8
20260509215801 57 109 2.0 3.0 0.00 0.15 0.15 90 997.9
20260509215300 57 103 2.0 6.0 0.00 0.15 0.15 89 997.8
20260509214801 57 105 2.0 6.0 0.00 0.15 0.15 89 997.9
20260509214301 57 106 2.0 4.0 0.00 0.15 0.15 89 997.9
20260509213800 58 90 1.0 3.0 0.00 0.15 0.15 89 998.0
20260509213523 58 43 1.0 3.0 0.00 0.15 0.15 89 998.0
20260509213018 57 34 0.0 2.0 0.00 0.15 0.15 89 998.0
20260509212252 57 34 0.0 2.0 0.00 0.15 0.15 89 998.1
20260509211745 57 34 1.0 3.0 0.01 0.15 0.15 90 998.1
20260509211240 57 34 1.0 3.0 0.02 0.15 0.15 90 998.1
20260509210734 57 31 1.0 4.0 0.02 0.15 0.15 91 998.0
20260509210228 57 20 1.0 4.0 0.02 0.15 0.15 92 998.0
20260509205723 57 65 1.0 3.0 0.02 0.15 0.15 92 998.0
20260509205437 57 0 1.0 3.0 0.02 0.15 0.15 92 998.0
20260509204710 56 5 1.0 3.0 0.02 0.15 0.15 92 998.0
20260509204427 56 28 0.0 3.0 0.03 0.15 0.15 92 998.1
20260509203658 56 30 1.0 3.0 0.03 0.15 0.15 92 998.1
20260509203153 55 30 1.0 4.0 0.04 0.15 0.15 91 997.9
20260509202647 55 30 1.0 4.0 0.04 0.15 0.15 91 997.8
20260509202141 55 21 2.0 4.0 0.04 0.15 0.15 91 997.9
20260509201857 55 15 2.0 4.0 0.03 0.14 0.14 90 997.8
20260509201352 56 22 2.0 5.0 0.03 0.13 0.13 91 998.0
20260509200622 56 33 2.0 5.0 0.05 0.13 0.13 91 998.0
20260509200339 56 28 2.0 4.0 0.05 0.13 0.13 91 998.0
20260509195609 56 28 1.0 3.0 0.05 0.13 0.13 90 998.1
20260509195332 56 60 0.0 3.0 0.05 0.13 0.13 90 998.2
20260509194605 56 5 1.0 4.0 0.05 0.13 0.13 90 998.4
20260509194102 56 5 1.0 4.0 0.04 0.12 0.12 90 998.4
20260509193559 56 9 1.0 4.0 0.04 0.12 0.12 89 998.4
20260509193102 56 9 1.0 3.0 0.03 0.11 0.11 90 998.5
20260509192601 56 16 1.0 4.0 0.03 0.11 0.11 89 998.7
20260509192057 56 342 1.0 4.0 0.04 0.11 0.11 89 998.7
20260509191559 56 278 1.0 6.0 0.04 0.11 0.11 89 998.8
20260509191057 57 225 1.0 6.0 0.02 0.09 0.10 89 999.0
20260509190557 57 9 1.0 4.0 0.02 0.08 0.08 89 999.0
20260509190055 57 240 1.0 4.0 0.02 0.08 0.08 88 999.1
20260509185556 57 291 1.0 4.0 0.02 0.08 0.08 89 999.0
20260509185054 57 307 1.0 3.0 0.02 0.08 0.08 89 999.1
20260509184820 57 275 1.0 3.0 0.03 0.08 0.08 88 999.1
20260509184321 57 344 1.0 5.0 0.04 0.08 0.08 88 999.1
20260509183550 57 12 1.0 5.0 0.04 0.08 0.08 88 999.1
20260509183050 57 252 1.0 4.0 0.04 0.08 0.08 87 999.2
20260509182548 57 275 0.0 2.0 0.04 0.08 0.08 88 999.2
20260509182048 58 355 0.0 2.0 0.03 0.07 0.08 87 999.3
20260509181549 58 294 1.0 2.0 0.03 0.07 0.07 87 999.4
20260509181042 58 291 1.0 4.0 0.03 0.07 0.07 87 999.4
20260509180538 58 234 1.0 4.0 0.02 0.06 0.06 87 999.5
20260509180030 58 238 1.0 4.0 0.02 0.06 0.06 86 999.5
20260509175526 58 335 1.0 2.0 0.02 0.06 0.06 86 999.5
20260509175503 58 336 1.0 4.0 0.02 0.06 0.06 86 999.5
20260509174512 58 219 2.0 4.0 0.01 0.05 0.05 85 999.5
20260509174005 58 294 2.0 5.0 0.00 0.04 0.04 85 999.5
20260509173502 59 232 1.0 4.0 0.01 0.04 0.04 85 999.4
20260509172954 59 232 0.0 3.0 0.02 0.04 0.04 85 999.3
20260509172712 59 337 0.0 2.0 0.02 0.04 0.04 85 999.2
20260509171942 59 171 0.0 2.0 0.03 0.04 0.04 85 999.1
20260509171436 59 53 0.0 2.0 0.04 0.04 0.04 85 999.0
20260509171156 59 53 0.0 2.0 0.04 0.04 0.04 85 999.0
20260509170424 58 54 1.0 2.0 0.04 0.04 0.04 85 999.2
20260509165918 58 36 0.0 2.0 0.04 0.04 0.04 84 999.3
20260509165411 59 252 0.0 2.0 0.04 0.04 0.04 85 999.3
20260509164907 59 252 0.0 2.0 0.04 0.04 0.04 84 999.3
20260509164400 59 252 0.0 3.0 0.04 0.04 0.04 83 999.4
20260509163855 59 259 1.0 3.0 0.04 0.04 0.04 82 999.3
20260509163349 59 355 1.0 2.0 0.03 0.03 0.03 81 999.4
20260509162842 59 248 1.0 4.0 0.02 0.02 0.02 80 999.4
20260509162336 59 249 2.0 7.0 0.02 0.02 0.02 78 999.5
20260509161830 60 223 3.0 7.0 0.01 0.01 0.01 77 999.6
20260509161325 60 219 3.0 10.0 0.00 0.00 0.00 76 999.6
20260509160818 61 231 3.0 10.0 0.00 0.00 0.00 74 999.7
20260509160311 61 296 3.0 10.0 0.00 0.00 0.00 72 999.9
20260509155807 62 234 3.0 10.0 0.00 0.00 0.00 71 1000.0
20260509155301 62 202 3.0 7.0 0.00 0.00 0.00 71 999.9
20260509154754 62 194 3.0 11.0 0.00 0.00 0.00 70 1000.0
20260509154248 63 269 3.0 11.0 0.00 0.00 0.00 70 999.8
20260509153743 63 263 3.0 8.0 0.00 0.00 0.00 70 1000.0
20260509153237 63 267 4.0 10.0 0.00 0.00 0.00 69 1000.0
20260509152951 63 248 4.0 11.0 0.00 0.00 0.00 68 1000.0
20260509152225 63 234 2.0 11.0 0.00 0.00 0.00 69 999.9
20260509151944 63 244 2.0 7.0 0.00 0.00 0.00 70 999.9
20260509151212 63 225 3.0 8.0 0.00 0.00 0.00 70 1000.0
20260509150705 63 193 2.0 8.0 0.00 0.00 0.00 71 1000.0
20260509150200 62 253 2.0 9.0 0.00 0.00 0.00 71 999.7
20260509145653 62 217 2.0 9.0 0.00 0.00 0.00 72 999.9
20260509145149 62 279 2.0 8.0 0.00 0.00 0.00 72 999.8
20260509144907 62 235 2.0 8.0 0.00 0.00 0.00 73 999.8
20260509144135 61 201 3.0 7.0 0.00 0.00 0.00 72 999.8
20260509143630 61 275 2.0 7.0 0.00 0.00 0.00 72 999.7
20260509143123 61 218 2.0 8.0 0.00 0.00 0.00 73 999.6
20260509142621 61 227 2.0 8.0 0.00 0.00 0.00 73 999.5
20260509142120 61 234 3.0 8.0 0.00 0.00 0.00 73 999.6
20260509141622 61 227 2.0 8.0 0.00 0.00 0.00 73 999.7
20260509141120 61 205 2.0 6.0 0.00 0.00 0.00 75 999.6
20260509140620 61 217 2.0 6.0 0.00 0.00 0.00 75 999.7
20260509140122 61 262 1.0 4.0 0.00 0.00 0.00 76 999.5
20260509135621 61 146 1.0 4.0 0.00 0.00 0.00 77 999.4
20260509135344 60 232 2.0 7.0 0.00 0.00 0.00 77 999.4
20260509134622 60 111 2.0 7.0 0.00 0.00 0.00 76 999.4
20260509134122 60 132 1.0 6.0 0.00 0.00 0.00 78 999.5
20260509133618 60 167 2.0 6.0 0.00 0.00 0.00 79 999.3
20260509133117 60 130 1.0 4.0 0.00 0.00 0.00 79 999.5
20260509132616 59 144 1.0 7.0 0.00 0.00 0.00 79 999.5
20260509132117 59 236 1.0 7.0 0.00 0.00 0.00 79 999.5
20260509131619 59 228 2.0 4.0 0.00 0.00 0.00 81 999.4
20260509131343 59 164 2.0 4.0 0.00 0.00 0.00 81 999.5
20260509130617 58 114 1.0 4.0 0.00 0.00 0.00 82 999.5
20260509130117 58 244 1.0 4.0 0.00 0.00 0.00 82 999.5
20260509125618 58 129 1.0 4.0 0.00 0.00 0.00 83 999.5
20260509125119 57 161 0.0 4.0 0.00 0.00 0.00 84 999.6
20260509124617 57 161 0.0 4.0 0.00 0.00 0.00 84 999.7
20260509124347 56 118 0.0 3.0 0.00 0.00 0.00 84 999.7
20260509123617 56 118 1.0 3.0 0.00 0.00 0.00 84 999.7
20260509123117 56 112 1.0 3.0 0.00 0.00 0.00 84 999.7
20260509122619 56 140 0.0 2.0 0.00 0.00 0.00 84 999.7
20260509122117 55 140 0.0 2.0 0.00 0.00 0.00 84 999.6
20260509121616 55 140 1.0 3.0 0.00 0.00 0.00 84 999.6
20260509121117 55 140 1.0 3.0 0.00 0.00 0.00 84 999.6
20260509120617 55 132 0.0 2.0 0.00 0.00 0.00 83 999.7
20260509120115 55 132 0.0 2.0 0.00 0.00 0.00 83 999.7
20260509115613 54 132 0.0 2.0 0.00 0.00 0.00 83 999.7
20260509115111 54 132 0.0 2.0 0.00 0.00 0.00 82 999.5
20260509114609 54 132 0.0 2.0 0.00 0.00 0.00 82 999.6
20260509114109 54 132 0.0 2.0 0.00 0.00 0.00 81 999.6
20260509113610 54 132 0.0 1.0 0.00 0.00 0.00 81 999.6
20260509113106 54 132 0.0 3.0 0.00 0.00 0.00 81 999.7
20260509112607 54 132 0.0 3.0 0.00 0.00 0.00 81 999.6
20260509112106 54 130 0.0 2.0 0.00 0.00 0.00 80 999.6
20260509111605 54 132 0.0 3.0 0.00 0.00 0.00 80 999.6
20260509111103 54 132 0.0 3.0 0.00 0.00 0.00 80 999.6
20260509110603 54 130 0.0 1.0 0.00 0.00 0.00 80 999.6
20260509110321 54 130 0.0 1.0 0.00 0.00 0.00 80 999.6
20260509105603 54 130 0.0 0.0 0.00 0.00 0.00 80 999.5
20260509105327 54 130 0.0 2.0 0.00 0.00 0.00 79 999.6
20260509104602 54 130 0.0 3.0 0.00 0.00 0.00 80 999.6